Location: Newark
(43.4306°N, 0.3089°E)
Time: 16:11:18
(UTC+00:00)

Vanguard 3 - Pass Details

Date: 28 August 2019
Orbit: 508 x 3263 km, 33.4° (Epoch: 21 September)

Event Time Altitude Azimuth Distance (km) Brightness Sun altitude
Rises 13:20:07 0° 215° (SW) 6,734 12.4 52.0°
Reaches altitude 10° 13:26:13 10° 204° (SSW) 5,309 12.1 51.4°
Maximum altitude 13:36:44 24° 159° (SSE) 3,331 10.9 50.2°
Drops below altitude 10° 13:43:59 10° 109° (ESE) 3,551 10.4 49.4°
Sets 13:47:03 0° 95° (E) 4,159 10.5 49.0°
